Motor Vehicle Energy Consumption,,,
"Source: US Dept of Energy, Energy Information Administration, available at: http://www.eia.doe.gov/oil_gas/petroleum/info_glance/gasoline.html",,,
Date updated: 9/12/01,,,
( mbb/d stand for thousands of barrels [m=thousands in roman numeral]),,,

Date,US Weekly Finished Gasoline Refinery Production (Mbbl/d),US Weekly Total Gasoline Imports (Mbbl/d),US Weekly Finished Gasoline Product Supplied (Mbbl/d)
1/4/91,6465,169,
1/11/91,6577,522,
1/18/91,6458,264,
1/25/91,6813,257,
2/1/91,6706,184,
2/8/91,6605,133,6621
2/15/91,6564,211,6433
2/22/91,6421,100,6582
3/1/91,6633,146,7224
3/8/91,6384,251,6875
3/15/91,6449,106,6947
3/22/91,6737,272,7328
3/29/91,6541,410,6777
4/5/91,6700,416,7503
4/12/91,6431,236,6916
4/19/91,6717,448,7045
4/26/91,6793,417,6956
5/3/91,6790,566,6976
5/10/91,6977,464,7185
5/17/91,6996,265,6899
5/24/91,7071,513,7396
5/31/91,7274,474,7287
6/7/91,7131,285,7220
6/14/91,7421,642,7651
6/21/91,7274,395,7720
6/28/91,7222,308,7543
7/5/91,7123,319,7961
7/12/91,7105,127,7327
7/19/91,7219,295,7380
7/26/91,7296,103,7501
8/2/91,7322,220,7605
8/9/91,7078,246,7584
8/16/91,7376,246,7401
8/23/91,7233,515,7505
8/30/91,7402,322,7427
9/6/91,6996,308,6993
9/13/91,7258,325,7402
9/20/91,7040,369,7391
9/27/91,7018,191,7088
10/4/91,7132,239,6949
10/11/91,6776,324,7506
10/18/91,6943,211,7396
10/25/91,6908,102,7421
11/1/91,6724,189,7159
11/8/91,6781,336,7379
11/15/91,6946,356,7369
11/22/91,7239,267,6652
11/29/91,7028,316,6769
12/6/91,7285,239,6828
12/13/91,7191,408,7344
12/20/91,7478,218,7447
12/27/91,7372,226,7186
1/3/92,7071,266,6642
1/10/92,7213,63,6788
1/17/92,7047,228,6783
1/24/92,6827,223,7037
1/31/92,6939,294,7112
2/7/92,6777,219,7039
2/14/92,6892,227,6576
2/21/92,6711,287,7002
2/28/92,6753,307,6770
3/6/92,6408,274,7002
3/13/92,6503,254,6806
3/20/92,6898,57,7221
3/27/92,6807,472,7379
4/3/92,6729,318,7027
4/10/92,6832,461,7744
4/17/92,6731,469,6464
4/24/92,7033,419,7376
5/1/92,7198,686,7899
5/8/92,6818,442,7318
5/15/92,7137,311,7174
5/22/92,7018,278,7086
5/29/92,7036,389,7774
6/5/92,7256,539,7104
6/12/92,7247,402,7129
6/19/92,7142,496,7407
6/26/92,7347,419,7701
7/3/92,7224,420,7572
7/10/92,7335,561,7813
7/17/92,7044,245,7422
7/24/92,7253,353,7792
7/31/92,7015,445,7433
8/7/92,6895,254,7796
8/14/92,7012,269,7700
8/21/92,7035,186,7365
8/28/92,6723,420,7814
9/4/92,6766,377,7326
9/11/92,6881,636,7473
9/18/92,6999,455,7181
9/25/92,7284,561,7286
10/2/92,7144,576,7293
10/9/92,7152,289,7514
10/16/92,7077,450,7204
10/23/92,7102,164,7276
10/30/92,6958,113,7509
11/6/92,7087,425,6923
11/13/92,7223,130,7056
11/20/92,7362,257,7240
11/27/92,7361,244,7138
12/4/92,7480,363,7432
12/11/92,7321,241,7354
12/18/92,7264,292,7400
12/25/92,7415,129,7596
1/1/93,7561,314,7358
1/8/93,7369,157,6852
1/15/93,7373,215,6726
1/22/93,7280,294,7131
1/29/93,7065,216,6603
2/5/93,7153,192,7322
2/12/93,7233,347,6779
2/19/93,7144,426,7325
2/26/93,7013,134,6961
3/5/93,7011,296,7188
3/12/93,6910,71,7100
3/19/93,6736,217,7239
3/26/93,6674,328,7194
4/2/93,6744,273,6964
4/9/93,6618,328,6797
4/16/93,6965,343,7561
4/23/93,6869,396,7392
4/30/93,7152,209,7470
5/7/93,7364,253,7657
5/14/93,7153,560,7649
5/21/93,7469,324,7295
5/28/93,7351,300,7364
6/4/93,7491,409,7018
6/11/93,7261,278,7740
6/18/93,7223,346,7392
6/25/93,7437,290,7804
7/2/93,7262,379,7868
7/9/93,7272,301,7578
7/16/93,7509,215,8113
7/23/93,7469,343,7916
7/30/93,7313,93,7336
8/6/93,7305,356,8033
8/13/93,7205,204,7581
8/20/93,7378,243,8187
8/27/93,7265,580,7629
9/3/93,7175,338,7386
9/10/93,7510,169,7889
9/17/93,7596,262,7478
9/24/93,7834,259,7485
10/1/93,7344,343,7387
10/8/93,7293,92,7276
10/15/93,7483,267,7613
10/22/93,7466,290,7704
10/29/93,7498,504,7788
11/5/93,7393,269,7640
11/12/93,7761,227,7552
11/19/93,7905,294,7992
11/26/93,7552,197,6845
12/3/93,7888,255,7430
12/10/93,7719,368,8074
12/17/93,7650,416,7684
12/24/93,7379,308,7411
12/31/93,7503,81,7567
1/7/94,7368,154,7124
1/14/94,7380,177,7124
1/21/94,6980,162,7157
1/28/94,6749,208,6321
2/4/94,6791,326,6953
2/11/94,6791,225,7487
2/18/94,6815,142,6993
2/25/94,6947,522,7372
3/4/94,6785,300,7286
3/11/94,6721,585,7214
3/18/94,6792,225,7521
3/25/94,6819,448,7481
4/1/94,6870,358,7398
4/8/94,6700,288,7187
4/15/94,7119,468,7720
4/22/94,7452,390,7042
4/29/94,7432,371,7892
5/6/94,7383,474,6824
5/13/94,7313,429,7552
5/20/94,7309,442,7938
5/27/94,7373,470,8028
6/3/94,7404,329,7461
6/10/94,7426,432,7770
6/17/94,7307,224,7650
6/24/94,7660,535,7909
7/1/94,7484,328,7930
7/8/94,6976,445,7562
7/15/94,7468,235,8006
7/22/94,7159,524,7523
7/29/94,7113,424,7581
8/5/94,7130,629,7638
8/12/94,7370,308,8187
8/19/94,7498,522,7836
8/26/94,7231,641,7750
9/2/94,7350,439,8061
9/9/94,7135,401,6955
9/16/94,7381,312,7601
9/23/94,7416,304,7763
9/30/94,7578,315,7733
10/7/94,7246,451,7515
10/14/94,7278,280,7562
10/21/94,7249,321,8143
10/28/94,7401,160,8204
11/4/94,7281,331,7432
11/11/94,7519,220,7377
11/18/94,7940,588,7929
11/25/94,7745,170,7431
12/2/94,8143,176,7593
12/9/94,7904,368,8229
12/16/94,7730,248,7933
12/23/94,7663,285,8278
12/30/94,7746,284,7718
1/6/95,7483,110,7134
1/13/95,7642,274,7534
1/20/95,7314,178,7260
1/27/95,7209,186,6976
2/3/95,7423,109,7267
2/10/95,7159,291,7132
2/17/95,7295,236,7398
2/24/95,7269,284,7670
3/3/95,7546,182,7194
3/10/95,7255,445,7548
3/17/95,7090,346,7834
3/24/95,7281,347,7797
3/31/95,7383,331,8195
4/7/95,7161,249,7588
4/14/95,7571,173,7543
4/21/95,7721,354,8156
4/28/95,7563,335,7731
5/5/95,7546,264,7539
5/12/95,7603,435,8052
5/19/95,7754,612,8183
5/26/95,8127,340,7797
6/2/95,7880,313,8460
6/9/95,7810,330,8055
6/16/95,7752,485,7971
6/23/95,8071,508,8489
6/30/95,7806,313,8238
7/7/95,7910,327,7996
7/14/95,7817,314,7866
7/21/95,7957,419,8483
7/28/95,7787,477,8213
8/4/95,7678,293,8402
8/11/95,7501,168,7628
8/18/95,7763,374,8411
8/25/95,7640,200,8206
9/1/95,7728,415,7825
9/8/95,7660,349,8078
9/15/95,7925,162,8249
9/22/95,7980,331,7821
9/29/95,7956,273,7257
10/6/95,7590,408,8106
10/13/95,7439,377,7879
10/20/95,7568,304,7712
10/27/95,7597,319,8103
11/3/95,7439,146,7449
11/10/95,7626,324,8477
11/17/95,7821,480,8021
11/24/95,7755,204,7840
12/1/95,7925,263,7439
12/8/95,7549,357,7949
12/15/95,7715,225,7489
12/22/95,7634,364,8115
12/29/95,7747,292,7035
1/5/96,7721,285,7958
1/12/96,7407,462,7513
1/19/96,7324,575,6949
1/26/96,7174,310,7393
2/2/96,7403,631,7513
2/9/96,7139,459,7520
2/16/96,7517,448,7868
2/23/96,7441,248,7826
3/1/96,7323,483,7338
3/8/96,7211,364,7877
3/15/96,7135,561,7757
3/22/96,7465,331,7900
3/29/96,7056,298,7568
4/5/96,7265,365,7280
4/12/96,7427,603,7804
4/19/96,7287,506,7433
4/26/96,7657,603,8079
5/3/96,7567,270,7592
5/10/96,7813,530,8267
5/17/96,7718,465,7512
5/24/96,7510,612,8080
5/31/96,7693,255,7836
6/7/96,7665,441,7946
6/14/96,7564,504,7957
6/21/96,7986,585,7956
6/28/96,7688,464,8563
7/5/96,7700,382,8015
7/12/96,7873,370,7968
7/19/96,7868,397,8152
7/26/96,7686,295,8067
8/2/96,7713,567,8279
8/9/96,7724,268,7722
8/16/96,7758,321,7818
8/23/96,7885,544,8364
8/30/96,7671,631,8369
9/6/96,7362,385,7843
9/13/96,7641,259,7537
9/20/96,7949,582,8000
9/27/96,7722,685,7619
10/4/96,7424,526,7935
10/11/96,7534,382,7637
10/18/96,7248,390,7958
10/25/96,7676,490,7991
11/1/96,7660,632,7682
11/8/96,7588,278,7804
11/15/96,7856,481,8073
11/22/96,7833,270,7883
11/29/96,7486,309,7370
12/6/96,8142,466,7706
12/13/96,7840,434,8355
12/20/96,7573,353,8051
12/27/96,7755,367,7740
1/3/97,7556,588,7122
1/10/97,7276,401,7440
1/17/97,7373,438,7408
1/24/97,7363,468,7265
1/31/97,7315,376,7125
2/7/97,7047,545,7013
2/14/97,7350,455,7530
2/21/97,7266,418,8011
2/28/97,7330,634,7779
3/7/97,7271,693,7417
3/14/97,7220,736,8125
3/21/97,7360,668,7729
3/28/97,7079,430,7492
4/4/97,7545,884,8115
4/11/97,7424,468,7791
4/18/97,7799,480,7914
4/25/97,7737,521,7922
5/2/97,7791,705,8224
5/9/97,8179,657,7765
5/16/97,7935,705,8253
5/23/97,7992,705,8088
5/30/97,7998,564,8154
6/6/97,7917,482,7590
6/13/97,8122,761,8009
6/20/97,8230,708,8557
6/27/97,8008,356,8234
7/4/97,8105,657,8489
7/11/97,8000,346,8606
7/18/97,8173,492,8595
7/25/97,7959,465,8600
8/1/97,7806,555,8290
8/8/97,7981,368,8253
8/15/97,7937,633,8539
8/22/97,7970,333,7922
8/29/97,8207,535,8695
9/5/97,8213,375,8053
9/12/97,8186,552,8215
9/19/97,8081,479,7746
9/26/97,8134,420,8140
10/3/97,8334,604,8379
10/10/97,8116,230,8221
10/17/97,8097,458,8315
10/24/97,7715,443,7741
10/31/97,7881,569,8355
11/7/97,7974,354,8025
11/14/97,7908,206,7793
11/21/97,7875,355,8043
11/28/97,7627,502,7578
12/5/97,8049,290,8437
12/12/97,8177,380,7955
12/19/97,8043,383,8151
12/26/97,8331,418,8201
1/2/98,8399,333,7832
1/9/98,8001,449,7673
1/16/98,7823,350,7779
1/23/98,7484,458,7940
1/30/98,7545,411,7670
2/6/98,7781,373,7673
2/13/98,7826,303,8201
2/20/98,7674,523,8005
2/27/98,7508,430,7662
3/6/98,7242,366,7744
3/13/98,7314,490,8103
3/20/98,7609,416,7753
3/27/98,7975,279,7996
4/3/98,7933,636,8992
4/10/98,7945,590,8031
4/17/98,8191,520,8303
4/24/98,8083,505,8118
5/1/98,8013,509,8190
5/8/98,7918,650,7503
5/15/98,8149,590,8524
5/22/98,8213,612,8337
5/29/98,8216,612,8205
6/5/98,8182,852,8312
6/12/98,8252,551,8103
6/19/98,8355,561,8160
6/26/98,8368,730,8644
7/3/98,8096,489,8755
7/10/98,8511,552,8234
7/17/98,8524,525,8749
7/24/98,8030,355,8125
7/31/98,8272,574,8997
8/7/98,7968,396,8317
8/14/98,8167,715,8981
8/21/98,8187,496,8288
8/28/98,8403,473,8607
9/4/98,8237,410,8713
9/11/98,8193,462,8722
9/18/98,8057,473,7873
9/25/98,8026,478,8359
10/2/98,7961,652,8058
10/9/98,7715,412,8797
10/16/98,8114,445,8049
10/23/98,7861,472,8099
10/30/98,7947,697,8360
11/6/98,8259,470,8195
11/13/98,8335,459,7711
11/20/98,8029,587,8381
11/27/98,8181,481,8313
12/4/98,8413,441,8162
12/11/98,8217,711,8314
12/18/98,8346,493,8588
12/25/98,8306,455,8153
1/1/99,8400,640,8519
1/8/99,8153,197,7385
1/15/99,8192,546,7810
1/22/99,7767,382,8186
1/29/99,7792,540,7866
2/5/99,7877,441,7532
2/12/99,7907,549,8756
2/19/99,7854,493,7948
2/26/99,7866,464,8316
3/5/99,7930,431,8273
3/12/99,7761,473,8451
3/19/99,7686,413,8367
3/26/99,7676,514,8337
4/2/99,7715,522,7959
4/9/99,7833,638,7878
4/16/99,7863,793,8066
4/23/99,7950,799,8923
4/30/99,8327,603,7825
5/7/99,8166,773,8059
5/14/99,8319,677,8761
5/21/99,8248,524,8275
5/28/99,8401,704,8401
6/4/99,8405,430,8193
6/11/99,8182,370,8827
6/18/99,8277,875,8522
6/25/99,8165,787,9045
7/2/99,8199,684,9076
7/9/99,7952,385,8679
7/16/99,8226,513,8622
7/23/99,8047,452,8639
7/30/99,8156,498,8537
8/6/99,8096,478,8644
8/13/99,8319,602,8519
8/20/99,8321,538,8415
8/27/99,8384,546,8810
9/3/99,8287,498,8778
9/10/99,8205,540,8593
9/17/99,8271,575,8504
9/24/99,8493,596,8865
10/1/99,8590,448,8557
10/8/99,8481,581,8433
10/15/99,8296,561,8406
10/22/99,7794,550,8521
10/29/99,8154,589,8532
11/5/99,8109,235,8333
11/12/99,7939,434,8416
11/19/99,8115,398,8404
11/26/99,8254,581,8416
12/3/99,8229,339,7670
12/10/99,8261,513,8557
12/17/99,8438,245,8638
12/24/99,8278,451,8590
12/31/99,8388,680,8851
1/7/00,8173,470,7907
1/14/00,8039,480,7543
1/21/00,7626,555,7919
1/28/00,7836,884,8385
2/4/00,7812,430,7642
2/11/00,7674,451,8375
2/18/00,7775,533,8524
2/25/00,7830,668,8072
3/3/00,7839,594,7608
3/10/00,8220,523,8662
3/17/00,8051,503,8201
3/24/00,8146,724,8384
3/31/00,8256,315,7896
4/7/00,8355,522,8655
4/14/00,8235,414,8557
4/21/00,8192,600,8616
4/28/00,8214,701,8302
5/5/00,8425,533,8679
5/12/00,8385,443,8242
5/19/00,8390,804,8408
5/26/00,8434,615,9075
6/2/00,8469,722,8863
6/9/00,8383,344,8403
6/16/00,8506,632,8895
6/23/00,8547,550,8475
6/30/00,8325,602,8620
7/7/00,8590,338,8519
7/14/00,8650,518,8844
7/21/00,8228,348,8361
7/28/00,8556,587,8614
8/4/00,8249,480,8759
8/11/00,8352,302,8813
8/18/00,8546,438,8786
8/25/00,8295,421,8960
9/1/00,8057,484,8644
9/8/00,8040,377,8573
9/15/00,8132,521,8814
9/22/00,8406,486,8153
9/29/00,8424,497,7819
10/6/00,8101,341,8340
10/13/00,8057,698,8663
10/20/00,8168,521,8604
10/27/00,8249,310,8942
11/3/00,8059,719,8780
11/10/00,8383,453,8216
11/17/00,8250,490,8419
11/24/00,8183,487,8063
12/1/00,8505,590,8233
12/8/00,8622,518,8711
12/15/00,8379,884,8475
12/22/00,8084,347,8400
12/29/00,7984,562,8693
1/5/01,7550,694,7825
1/12/01,7785,712,8225
1/19/01,7896,636,7894
1/26/01,7789,740,7338
2/2/01,7641,721,8589
2/9/01,7692,592,8032
2/16/01,7677,482,7850
2/23/01,7974,580,8187
3/2/01,7828,891,8489
3/9/01,8060,563,8425
3/16/01,7865,325,8484
3/23/01,7869,664,8475
3/30/01,7955,518,8507
4/6/01,8156,692,8306
4/13/01,8477,496,8438
4/20/01,8545,678,8708
4/27/01,8476,863,8404
5/4/01,8599,786,8665
5/11/01,8475,507,8275
5/18/01,8501,813,8917
5/25/01,8567,692,8270
6/1/01,8785,489,8809
6/8/01,8775,865,8428
6/15/01,8517,829,8393
6/22/01,8683,711,8921
6/29/01,8997,752,9036
7/6/01,8508,555,8622
7/13/01,8502,637,9095
7/20/01,8558,781,9176
7/27/01,8266,808,9007
8/3/01,8344,573,8959
8/10/01,8097,621,8671
8/17/01,8425,947,9035
8/24/01,8136,579,8943
8/31/01,8050,675,8612
9/7/01,8263,582,8529
9/14/01,8245,464,8969
9/21/01,8445,935,7834
9/28/01,8455,955,8514
10/5/01,8499,773,8500
10/12/01,8562,748,8766
10/19/01,8429,695,8619
10/26/01,8422,640,8702
11/2/01,8631,776,8797
11/9/01,8302,542,8771
11/16/01,8326,822,8612
11/23/01,8331,740,8868
11/30/01,8535,831,8517
12/7/01,8130,438,8327
12/14/01,8246,696,8622
12/21/01,8147,771,8888
12/28/01,8292,816,8860
1/4/02,8244,765,8288
1/11/02,8238,728,8359
